This is the latest recevied weather packets stored in our database for station/object AC4AG. If no packets are shown the sender has not sent any weather packets the latest 1 day(s).
| Time | Temp. | Humidity | Pressure | Rain* | Wind** | Luminosity | Snow |
|---|---|---|---|---|---|---|---|
| 1778036119 | 14.44° C | 91% | 1008.8 hPa | 0 mm | 1.34 m/s, 141° | 0 W/m² | - |
| 1778035815 | 14.44° C | 91% | 1008.9 hPa | 0 mm | 1.79 m/s, 152° | 0 W/m² | - |
| 1778035512 | 13.89° C | 92% | 1008.9 hPa | 0 mm | 3.13 m/s, 181° | 0 W/m² | - |
| 1778035208 | 13.89° C | 95% | 1009.1 hPa | 1.78 mm | 1.34 m/s, 157° | 0 W/m² | - |
| 1778034904 | 13.89° C | 95% | 1008.9 hPa | 7.87 mm | 0.89 m/s, 157° | 0 W/m² | - |
| 1778034602 | 13.89° C | 94% | 1009.1 hPa | 8.89 mm | 1.79 m/s, 140° | 0 W/m² | - |
| 1778034299 | 13.89° C | 91% | 1009.5 hPa | 4.83 mm | 2.68 m/s, 201° | 0 W/m² | - |
| 1778033997 | 14.44° C | 90% | 1009.8 hPa | 1.78 mm | 2.24 m/s, 223° | 0 W/m² | - |
| 1778033694 | 14.44° C | 90% | 1009.3 hPa | 0 mm | 2.68 m/s, 227° | 0 W/m² | - |
| 1778033391 | 14.44° C | 91% | 1008.8 hPa | 1.27 mm | 1.34 m/s, 208° | 0 W/m² | - |
| 1778033089 | 14.44° C | 87% | 1008.2 hPa | 1.27 mm | 2.68 m/s, 188° | 0 W/m² | - |
| 1778032786 | 15° C | 84% | 1008.5 hPa | 1.78 mm | 1.34 m/s, 182° | 0 W/m² | - |
| 1778032483 | 15.56° C | 81% | 1009.2 hPa | 4.83 mm | 1.34 m/s, 198° | 0 W/m² | - |
| 1778032180 | 16.67° C | 77% | 1009.6 hPa | 3.05 mm | 1.34 m/s, 198° | 0 W/m² | - |
| 1778031877 | 17.78° C | 65% | 1009.4 hPa | 0 mm | 6.26 m/s, 189° | 0 W/m² | - |
| 1778031573 | 20° C | 54% | 1008.8 hPa | 0 mm | 5.81 m/s, 195° | 0 W/m² | - |
| 1778031271 | 20° C | 54% | 1008.8 hPa | 0 mm | 5.81 m/s, 195° | 0 W/m² | - |
| 1778030967 | 20.56° C | 51% | 1008.3 hPa | 0 mm | 3.58 m/s, 230° | 0 W/m² | - |
| 1778030664 | 20.56° C | 51% | 1008 hPa | 0 mm | 4.02 m/s, 175° | 0 W/m² | - |
| 1778030361 | 20.56° C | 51% | 1008 hPa | 0 mm | 1.34 m/s, 192° | 0 W/m² | - |
| 1778030058 | 20.56° C | 51% | 1008.1 hPa | 0 mm | 3.13 m/s, 200° | 0 W/m² | - |
| 1778029755 | 20.56° C | 50% | 1007.7 hPa | 0 mm | 3.58 m/s, 206° | 0 W/m² | - |
| 1778029454 | 20.56° C | 50% | 1007.8 hPa | 0 mm | 2.24 m/s, 207° | 0 W/m² | - |
| 1778029150 | 20.56° C | 50% | 1008 hPa | 0 mm | 2.68 m/s, 215° | 0 W/m² | - |
| 1778028848 | 20.56° C | 49% | 1008 hPa | 0 mm | 4.02 m/s, 199° | 0 W/m² | - |
* Rain latest hour (hover to see other rain measurements)
** Current wind speed in m/s (hover to see current wind gust speed)